Time,TemperatureF,DewpointF,PressureIn,WindDirection,WindDirectionDegrees,WindSpeedMPH,WindSpeedGustMPH,Humidity,HourlyPrecipIn,Conditions,Clouds,dailyrainin,SoftwareType,DateUTC
2013-01-24 00:02:00,68.4,61.9,30.03,ENE,71,0.0,2.0,80,0.00,,,0.00,meteohub,2013-01-24 10:02:00,
2013-01-24 00:07:00,68.2,61.7,30.03,ENE,71,1.0,1.0,80,0.00,,,0.00,meteohub,2013-01-24 10:07:00,
2013-01-24 00:12:00,68.2,61.7,30.03,ENE,70,2.0,2.0,80,0.00,,,0.00,meteohub,2013-01-24 10:12:00,
2013-01-24 00:17:00,68.4,61.9,30.03,ENE,69,1.0,2.0,80,0.00,,,0.00,meteohub,2013-01-24 10:17:00,
2013-01-24 00:22:00,68.4,61.9,30.03,ENE,70,1.0,2.0,80,0.00,,,0.00,meteohub,2013-01-24 10:22:00,
2013-01-24 00:27:00,68.4,61.9,30.03,ENE,70,1.0,2.0,80,0.00,,,0.00,meteohub,2013-01-24 10:27:00,
2013-01-24 00:32:00,68.4,61.9,30.02,ENE,70,2.0,2.0,80,0.00,,,0.00,meteohub,2013-01-24 10:32:00,
2013-01-24 00:37:00,68.5,61.7,30.02,ENE,78,2.0,2.0,79,0.00,,,0.00,meteohub,2013-01-24 10:37:00,
2013-01-24 00:42:00,68.5,61.7,30.02,ENE,78,1.0,2.0,79,0.00,,,0.00,meteohub,2013-01-24 10:42:00,
2013-01-24 00:48:00,68.4,61.5,30.02,ENE,73,1.0,2.0,79,0.00,,,0.00,meteohub,2013-01-24 10:48:00,
2013-01-24 00:53:00,68.2,61.7,30.02,East,89,1.0,2.0,80,0.00,,,0.00,meteohub,2013-01-24 10:53:00,
2013-01-24 00:58:00,68.2,61.7,30.02,East,88,0.0,2.0,80,0.00,,,0.00,meteohub,2013-01-24 10:58:00,
2013-01-24 01:03:00,68.2,61.7,30.02,East,86,0.0,2.0,80,0.00,,,0.00,meteohub,2013-01-24 11:03:00,
2013-01-24 01:08:00,68.2,61.7,30.02,ENE,78,2.0,2.0,80,0.00,,,0.00,meteohub,2013-01-24 11:08:00,
2013-01-24 01:13:00,68.2,61.7,30.02,East,84,0.0,2.0,80,0.00,,,0.00,meteohub,2013-01-24 11:13:00,
2013-01-24 01:19:00,68.2,61.3,30.02,ESE,114,1.0,2.0,79,0.00,,,0.00,meteohub,2013-01-24 11:19:00,
2013-01-24 01:24:00,67.8,61.3,30.02,ESE,113,1.0,2.0,80,0.00,,,0.00,meteohub,2013-01-24 11:24:00,
2013-01-24 01:29:00,68.0,61.5,30.02,East,91,2.0,2.0,80,0.00,,,0.00,meteohub,2013-01-24 11:29:00,
2013-01-24 01:34:00,68.0,61.2,30.01,ESE,102,1.0,3.0,79,0.00,,,0.00,meteohub,2013-01-24 11:34:00,
2013-01-24 01:39:00,67.8,61.3,30.01,East,95,0.0,3.0,80,0.00,,,0.00,meteohub,2013-01-24 11:39:00,
2013-01-24 01:44:00,67.6,61.0,30.01,East,94,2.0,3.0,79,0.00,,,0.00,meteohub,2013-01-24 11:44:00,
2013-01-24 01:49:00,67.5,61.2,30.01,East,96,1.0,2.0,80,0.00,,,0.00,meteohub,2013-01-24 11:49:00,
2013-01-24 01:54:00,67.6,61.2,30.01,ENE,70,1.0,3.0,80,0.00,,,0.00,meteohub,2013-01-24 11:54:00,
2013-01-24 01:59:00,67.8,61.0,30.01,ENE,77,1.0,3.0,79,0.00,,,0.00,meteohub,2013-01-24 11:59:00,
2013-01-24 02:05:00,67.8,61.0,30.01,East,92,1.0,3.0,79,0.00,,,0.00,meteohub,2013-01-24 12:05:00,
2013-01-24 02:10:00,67.8,61.0,30.00,East,91,2.0,3.0,79,0.00,,,0.00,meteohub,2013-01-24 12:10:00,
2013-01-24 02:15:00,68.0,61.2,30.01,ENE,72,1.0,4.0,79,0.00,,,0.00,meteohub,2013-01-24 12:15:00,
2013-01-24 02:20:00,68.2,61.3,30.00,ENE,71,1.0,4.0,79,0.00,,,0.00,meteohub,2013-01-24 12:20:00,
2013-01-24 02:25:00,68.4,61.5,30.00,ENE,75,1.0,4.0,79,0.00,,,0.00,meteohub,2013-01-24 12:25:00,
2013-01-24 02:30:00,68.4,61.5,30.00,NE,54,1.0,2.0,79,0.00,,,0.00,meteohub,2013-01-24 12:30:00,
2013-01-24 02:35:00,68.4,61.5,30.00,NE,54,1.0,2.0,79,0.00,,,0.00,meteohub,2013-01-24 12:35:00,
2013-01-24 02:40:00,68.5,61.7,30.01,NE,53,0.0,3.0,79,0.00,,,0.00,meteohub,2013-01-24 12:40:00,
2013-01-24 02:45:00,68.5,62.1,30.00,NNE,27,1.0,2.0,80,0.00,,,0.00,meteohub,2013-01-24 12:45:00,
2013-01-24 02:50:00,68.5,61.7,30.00,NE,46,1.0,2.0,79,0.00,,,0.00,meteohub,2013-01-24 12:50:00,
2013-01-24 02:55:00,68.5,61.7,30.00,ENE,60,0.0,2.0,79,0.00,,,0.00,meteohub,2013-01-24 12:55:00,
2013-01-24 03:00:00,68.5,61.7,30.00,ENE,78,1.0,3.0,79,0.00,,,0.00,meteohub,2013-01-24 13:00:00,
2013-01-24 03:05:00,68.5,61.7,30.00,ENE,70,0.0,3.0,79,0.00,,,0.00,meteohub,2013-01-24 13:05:00,
2013-01-24 03:11:00,68.5,61.7,29.99,ENE,71,0.0,3.0,79,0.00,,,0.00,meteohub,2013-01-24 13:11:00,
2013-01-24 03:16:00,68.5,61.7,29.99,East,81,0.0,2.0,79,0.00,,,0.00,meteohub,2013-01-24 13:16:00,
2013-01-24 03:21:00,68.5,61.7,29.99,East,80,0.0,1.0,79,0.00,,,0.00,meteohub,2013-01-24 13:21:00,
2013-01-24 03:26:00,68.7,61.9,29.99,East,84,0.0,1.0,79,0.00,,,0.00,meteohub,2013-01-24 13:26:00,
2013-01-24 03:31:00,68.7,61.9,29.99,ESE,117,1.0,1.0,79,0.00,,,0.00,meteohub,2013-01-24 13:31:00,
2013-01-24 03:36:00,68.5,62.1,29.99,ESE,119,0.0,1.0,80,0.00,,,0.00,meteohub,2013-01-24 13:36:00,
2013-01-24 03:41:00,68.5,62.1,29.99,ESE,109,1.0,2.0,80,0.00,,,0.00,meteohub,2013-01-24 13:41:00,
2013-01-24 03:46:00,68.7,61.9,29.99,ESE,106,1.0,2.0,79,0.00,,,0.00,meteohub,2013-01-24 13:46:00,
2013-01-24 03:51:00,69.3,62.4,29.99,East,94,2.0,2.0,79,0.00,,,0.00,meteohub,2013-01-24 13:51:00,
2013-01-24 03:56:00,69.4,62.6,29.99,East,95,0.0,3.0,79,0.00,,,0.00,meteohub,2013-01-24 13:56:00,
2013-01-24 04:01:00,69.4,62.2,29.99,East,98,0.0,3.0,78,0.00,,,0.00,meteohub,2013-01-24 14:01:00,
2013-01-24 04:06:00,69.6,62.4,29.99,East,82,0.0,3.0,78,0.00,,,0.00,meteohub,2013-01-24 14:06:00,
2013-01-24 04:12:00,69.6,62.4,29.99,ENE,75,1.0,2.0,78,0.00,,,0.00,meteohub,2013-01-24 14:12:00,
2013-01-24 04:17:00,69.3,62.4,30.00,WNW,300,1.0,4.0,79,0.00,,,0.00,meteohub,2013-01-24 14:17:00,
2013-01-24 04:22:00,69.1,62.2,30.00,SSW,207,1.0,4.0,79,0.00,,,0.00,meteohub,2013-01-24 14:22:00,
2013-01-24 04:27:00,69.1,63.0,30.00,SSW,210,0.0,4.0,81,0.00,,,0.00,meteohub,2013-01-24 14:27:00,
2013-01-24 04:32:00,69.1,63.0,29.99,SSW,198,0.0,2.0,81,0.00,,,0.00,meteohub,2013-01-24 14:32:00,
2013-01-24 04:37:00,68.7,62.2,30.00,ESE,105,0.0,2.0,80,0.00,,,0.00,meteohub,2013-01-24 14:37:00,
2013-01-24 04:42:00,68.4,62.2,29.99,ESE,106,1.0,1.0,81,0.00,,,0.00,meteohub,2013-01-24 14:42:00,
2013-01-24 04:47:00,68.4,62.6,30.00,ESE,111,1.0,1.0,82,0.00,,,0.00,meteohub,2013-01-24 14:47:00,
2013-01-24 04:52:00,68.4,62.6,30.00,ESE,110,0.0,1.0,82,0.00,,,0.00,meteohub,2013-01-24 14:52:00,
2013-01-24 04:57:00,68.2,62.4,30.00,East,88,1.0,1.0,82,0.00,,,0.00,meteohub,2013-01-24 14:57:00,
2013-01-24 05:02:00,67.8,62.1,30.00,East,79,1.0,2.0,82,0.00,,,0.00,meteohub,2013-01-24 15:02:00,
2013-01-24 05:07:00,67.8,61.7,30.00,East,84,1.0,3.0,81,0.00,,,0.00,meteohub,2013-01-24 15:07:00,
2013-01-24 05:12:00,67.5,61.2,30.00,East,88,1.0,3.0,80,0.00,,,0.00,meteohub,2013-01-24 15:12:00,
2013-01-24 05:17:00,67.3,60.6,30.00,ENE,73,2.0,3.0,79,0.00,,,0.00,meteohub,2013-01-24 15:17:00,
2013-01-24 05:22:00,67.1,60.4,30.00,ENE,71,1.0,2.0,79,0.00,,,0.00,meteohub,2013-01-24 15:22:00,
2013-01-24 05:27:00,67.1,60.4,30.00,East,82,1.0,3.0,79,0.00,,,0.00,meteohub,2013-01-24 15:27:00,
2013-01-24 05:32:00,66.7,59.7,30.00,East,86,1.0,3.0,78,0.00,,,0.00,meteohub,2013-01-24 15:32:00,
2013-01-24 05:37:00,66.6,59.9,30.00,East,84,0.0,2.0,79,0.00,,,0.00,meteohub,2013-01-24 15:37:00,
2013-01-24 05:42:00,66.4,59.7,30.01,East,84,1.0,2.0,79,0.00,,,0.00,meteohub,2013-01-24 15:42:00,
2013-01-24 05:48:00,66.4,59.7,30.00,East,82,0.0,2.0,79,0.00,,,0.00,meteohub,2013-01-24 15:48:00,
2013-01-24 05:53:00,66.4,59.7,30.01,East,94,1.0,2.0,79,0.00,,,0.00,meteohub,2013-01-24 15:53:00,
2013-01-24 05:58:00,66.2,59.5,30.01,ENE,75,1.0,2.0,79,0.00,,,0.00,meteohub,2013-01-24 15:58:00,
2013-01-24 06:03:00,66.2,59.5,30.01,ENE,73,1.0,2.0,79,0.00,,,0.00,meteohub,2013-01-24 16:03:00,
2013-01-24 06:08:00,66.2,59.5,30.01,ENE,73,2.0,2.0,79,0.00,,,0.00,meteohub,2013-01-24 16:08:00,
2013-01-24 06:13:00,66.2,59.5,30.01,ENE,70,1.0,2.0,79,0.00,,,0.00,meteohub,2013-01-24 16:13:00,
2013-01-24 06:18:00,66.4,59.7,30.01,ENE,71,1.0,2.0,79,0.00,,,0.00,meteohub,2013-01-24 16:18:00,
2013-01-24 06:23:00,66.7,60.4,30.01,ENE,60,2.0,2.0,80,0.00,,,0.00,meteohub,2013-01-24 16:23:00,
2013-01-24 06:28:00,67.1,60.4,30.01,ENE,63,0.0,3.0,79,0.00,,,0.00,meteohub,2013-01-24 16:28:00,
2013-01-24 06:33:00,67.1,60.4,30.02,East,84,0.0,3.0,79,0.00,,,0.00,meteohub,2013-01-24 16:33:00,
2013-01-24 06:38:00,66.9,60.3,30.02,ENE,73,0.0,3.0,79,0.00,,,0.00,meteohub,2013-01-24 16:38:00,
2013-01-24 06:43:00,67.1,60.4,30.02,ENE,78,2.0,2.0,79,0.00,,,0.00,meteohub,2013-01-24 16:43:00,
2013-01-24 06:48:00,67.3,60.6,30.02,East,79,1.0,3.0,79,0.00,,,0.00,meteohub,2013-01-24 16:48:00,
2013-01-24 06:53:00,67.3,60.6,30.02,ENE,75,2.0,3.0,79,0.00,,,0.00,meteohub,2013-01-24 16:53:00,
2013-01-24 06:58:00,67.5,60.4,30.02,ENE,75,2.0,3.0,78,0.00,,,0.00,meteohub,2013-01-24 16:58:00,
2013-01-24 07:03:00,67.6,60.6,30.02,ENE,74,1.0,3.0,78,0.00,,,0.00,meteohub,2013-01-24 17:03:00,
2013-01-24 07:09:00,67.8,60.3,30.02,ENE,78,2.0,2.0,77,0.00,,,0.00,meteohub,2013-01-24 17:09:00,
2013-01-24 07:14:00,68.0,60.4,30.02,East,89,2.0,2.0,77,0.00,,,0.00,meteohub,2013-01-24 17:14:00,
2013-01-24 07:19:00,67.8,60.3,30.02,ENE,73,2.0,2.0,77,0.00,,,0.00,meteohub,2013-01-24 17:19:00,
2013-01-24 07:24:00,67.8,60.3,30.02,ENE,78,1.0,2.0,77,0.00,,,0.00,meteohub,2013-01-24 17:24:00,
2013-01-24 07:29:00,67.6,60.3,30.02,ENE,73,1.0,3.0,77,0.00,,,0.00,meteohub,2013-01-24 17:29:00,
2013-01-24 07:34:00,67.6,60.3,30.03,East,92,1.0,3.0,77,0.00,,,0.00,meteohub,2013-01-24 17:34:00,
2013-01-24 07:39:00,67.3,59.9,30.03,NW,316,1.0,3.0,77,0.00,,,0.00,meteohub,2013-01-24 17:39:00,
2013-01-24 07:44:00,67.1,60.1,30.03,NE,56,2.0,4.0,78,0.00,,,0.00,meteohub,2013-01-24 17:44:00,
2013-01-24 07:49:00,67.5,60.1,30.04,ENE,61,2.0,4.0,77,0.00,,,0.00,meteohub,2013-01-24 17:49:00,
2013-01-24 07:54:00,67.6,59.7,30.04,East,85,1.0,4.0,76,0.00,,,0.00,meteohub,2013-01-24 17:54:00,
2013-01-24 07:59:00,68.0,60.1,30.04,East,80,1.0,3.0,76,0.00,,,0.00,meteohub,2013-01-24 17:59:00,
2013-01-24 08:04:00,68.5,60.6,30.04,ENE,71,1.0,3.0,76,0.00,,,0.00,meteohub,2013-01-24 18:04:00,
2013-01-24 08:10:00,69.1,61.2,30.04,East,84,2.0,3.0,76,0.00,,,0.00,meteohub,2013-01-24 18:10:00,
2013-01-24 08:15:00,69.6,61.3,30.04,East,87,1.0,3.0,75,0.00,,,0.00,meteohub,2013-01-24 18:15:00,
2013-01-24 08:20:00,70.0,61.7,30.04,ESE,109,0.0,3.0,75,0.00,,,0.00,meteohub,2013-01-24 18:20:00,
2013-01-24 08:25:00,70.5,62.2,30.04,ESE,109,0.0,3.0,75,0.00,,,0.00,meteohub,2013-01-24 18:25:00,
2013-01-24 08:30:00,71.1,62.8,30.05,ESE,109,0.0,2.0,75,0.00,,,0.00,meteohub,2013-01-24 18:30:00,
2013-01-24 08:35:00,71.4,63.1,30.05,ESE,109,0.0,2.0,75,0.00,,,0.00,meteohub,2013-01-24 18:35:00,
2013-01-24 08:40:00,71.6,63.0,30.05,WSW,238,1.0,2.0,74,0.00,,,0.00,meteohub,2013-01-24 18:40:00,
2013-01-24 08:45:00,71.4,62.8,30.05,SW,231,1.0,2.0,74,0.00,,,0.00,meteohub,2013-01-24 18:45:00,
2013-01-24 08:50:00,71.6,62.4,30.05,SW,235,0.0,2.0,73,0.00,,,0.00,meteohub,2013-01-24 18:50:00,
2013-01-24 08:55:00,72.0,62.8,30.05,SW,226,0.0,2.0,73,0.00,,,0.00,meteohub,2013-01-24 18:55:00,
2013-01-24 09:00:00,72.3,63.1,30.05,WSW,253,0.0,1.0,73,0.00,,,0.00,meteohub,2013-01-24 19:00:00,
2013-01-24 09:05:00,72.3,63.1,30.05,WSW,252,3.0,3.0,73,0.00,,,0.00,meteohub,2013-01-24 19:05:00,
2013-01-24 09:10:00,72.3,63.9,30.05,NW,308,1.0,3.0,75,0.00,,,0.00,meteohub,2013-01-24 19:10:00,
2013-01-24 09:16:00,72.3,64.4,30.05,WNW,297,3.0,4.0,76,0.00,,,0.00,meteohub,2013-01-24 19:16:00,
2013-01-24 09:21:00,72.3,64.8,30.05,NW,325,3.0,5.0,77,0.00,,,0.00,meteohub,2013-01-24 19:21:00,
2013-01-24 09:26:00,72.3,64.8,30.06,NW,308,5.0,5.0,77,0.00,,,0.00,meteohub,2013-01-24 19:26:00,
2013-01-24 09:31:00,72.1,64.2,30.06,NNW,327,6.0,6.0,76,0.00,,,0.00,meteohub,2013-01-24 19:31:00,
2013-01-24 09:36:00,72.1,64.2,30.06,WSW,253,2.0,6.0,76,0.00,,,0.00,meteohub,2013-01-24 19:36:00,
2013-01-24 09:41:00,72.3,64.4,30.06,NW,321,3.0,6.0,76,0.00,,,0.00,meteohub,2013-01-24 19:41:00,
2013-01-24 09:46:00,72.3,64.4,30.06,NW,314,1.0,6.0,76,0.00,,,0.00,meteohub,2013-01-24 19:46:00,
2013-01-24 09:51:00,72.7,64.8,30.06,NW,318,2.0,3.0,76,0.00,,,0.00,meteohub,2013-01-24 19:51:00,
2013-01-24 09:56:00,73.0,65.5,30.06,NW,306,4.0,4.0,77,0.00,,,0.00,meteohub,2013-01-24 19:56:00,
2013-01-24 10:01:00,73.2,64.4,30.06,NW,316,2.0,6.0,74,0.00,,,0.00,meteohub,2013-01-24 20:01:00,
2013-01-24 10:06:00,73.2,64.4,30.06,NW,310,4.0,6.0,74,0.00,,,0.00,meteohub,2013-01-24 20:06:00,
2013-01-24 10:11:00,73.2,64.4,30.06,NW,315,4.0,6.0,74,0.00,,,0.00,meteohub,2013-01-24 20:11:00,
2013-01-24 10:16:00,73.6,64.8,30.06,WNW,290,3.0,5.0,74,0.00,,,0.00,meteohub,2013-01-24 20:16:00,
2013-01-24 10:21:00,73.8,65.3,30.06,WNW,283,3.0,5.0,75,0.00,,,0.00,meteohub,2013-01-24 20:21:00,
2013-01-24 10:26:00,73.8,65.3,30.06,West,269,2.0,5.0,75,0.00,,,0.00,meteohub,2013-01-24 20:26:00,
2013-01-24 10:32:00,73.8,65.3,30.06,WNW,290,4.0,6.0,75,0.00,,,0.00,meteohub,2013-01-24 20:32:00,
2013-01-24 10:37:00,73.8,64.9,30.06,West,274,6.0,6.0,74,0.00,,,0.00,meteohub,2013-01-24 20:37:00,
2013-01-24 10:42:00,73.6,65.1,30.06,WNW,288,6.0,8.0,75,0.00,,,0.00,meteohub,2013-01-24 20:42:00,
2013-01-24 10:47:00,73.6,65.1,30.07,WNW,295,3.0,8.0,75,0.00,,,0.00,meteohub,2013-01-24 20:47:00,
2013-01-24 10:52:00,73.6,65.1,30.06,WNW,295,2.0,8.0,75,0.00,,,0.00,meteohub,2013-01-24 20:52:00,
2013-01-24 10:57:00,73.6,65.1,30.06,WNW,300,3.0,6.0,75,0.00,,,0.00,meteohub,2013-01-24 20:57:00,
2013-01-24 11:02:00,73.6,65.1,30.06,WNW,300,0.0,6.0,75,0.00,,,0.00,meteohub,2013-01-24 21:02:00,
2013-01-24 11:07:00,73.8,64.9,30.06,WNW,294,1.0,5.0,74,0.00,,,0.00,meteohub,2013-01-24 21:07:00,
2013-01-24 11:12:00,73.9,65.1,30.06,SW,232,2.0,3.0,74,0.00,,,0.00,meteohub,2013-01-24 21:12:00,
2013-01-24 11:17:00,74.5,65.3,30.06,South,169,0.0,4.0,73,0.00,,,0.00,meteohub,2013-01-24 21:17:00,
2013-01-24 11:22:00,74.8,64.4,30.06,SSW,194,2.0,4.0,70,0.00,,,0.00,meteohub,2013-01-24 21:22:00,
2013-01-24 11:27:00,75.4,64.6,30.06,WSW,253,6.0,6.0,69,0.00,,,0.00,meteohub,2013-01-24 21:27:00,
2013-01-24 11:32:00,75.4,65.3,30.05,WSW,242,5.0,7.0,71,0.00,,,0.00,meteohub,2013-01-24 21:32:00,
2013-01-24 11:37:00,75.7,65.7,30.05,West,259,4.0,7.0,71,0.00,,,0.00,meteohub,2013-01-24 21:37:00,
2013-01-24 11:42:00,75.7,64.8,30.05,West,273,4.0,7.0,69,0.00,,,0.00,meteohub,2013-01-24 21:42:00,
2013-01-24 11:47:00,75.6,64.8,30.05,WSW,250,4.0,7.0,69,0.00,,,0.00,meteohub,2013-01-24 21:47:00,
2013-01-24 11:52:00,75.4,64.6,30.04,West,270,2.0,6.0,69,0.00,,,0.00,meteohub,2013-01-24 21:52:00,
2013-01-24 11:57:00,75.4,64.6,30.04,West,270,3.0,6.0,69,0.00,,,0.00,meteohub,2013-01-24 21:57:00,
2013-01-24 12:02:00,75.0,63.7,30.04,West,266,1.0,6.0,68,0.00,,,0.00,meteohub,2013-01-24 22:02:00,
2013-01-24 12:07:00,75.4,64.9,30.04,WNW,295,2.0,6.0,70,0.00,,,0.00,meteohub,2013-01-24 22:07:00,
2013-01-24 12:12:00,75.0,64.2,30.03,WNW,300,3.0,6.0,69,0.00,,,0.00,meteohub,2013-01-24 22:12:00,
2013-01-24 12:18:00,75.0,64.9,30.03,WNW,288,4.0,5.0,71,0.00,,,0.00,meteohub,2013-01-24 22:18:00,
2013-01-24 12:23:00,74.8,64.4,30.03,NW,306,3.0,5.0,70,0.00,,,0.00,meteohub,2013-01-24 22:23:00,
2013-01-24 12:28:00,74.8,64.8,30.03,WNW,290,3.0,6.0,71,0.00,,,0.00,meteohub,2013-01-24 22:28:00,
2013-01-24 12:33:00,74.8,65.1,30.02,WNW,298,8.0,8.0,72,0.00,,,0.00,meteohub,2013-01-24 22:33:00,
2013-01-24 12:38:00,74.5,64.9,30.02,West,274,5.0,9.0,72,0.00,,,0.00,meteohub,2013-01-24 22:38:00,
2013-01-24 12:43:00,74.5,64.4,30.02,WNW,298,4.0,9.0,71,0.00,,,0.00,meteohub,2013-01-24 22:43:00,
2013-01-24 12:48:00,74.8,64.4,30.02,WNW,295,4.0,9.0,70,0.00,,,0.00,meteohub,2013-01-24 22:48:00,
2013-01-24 12:53:00,74.8,64.8,30.02,WNW,302,6.0,8.0,71,0.00,,,0.00,meteohub,2013-01-24 22:53:00,
2013-01-24 12:58:00,75.0,64.2,30.02,WNW,291,5.0,8.0,69,0.00,,,0.00,meteohub,2013-01-24 22:58:00,
2013-01-24 13:03:00,75.4,65.7,30.01,NW,312,6.0,8.0,72,0.00,,,0.00,meteohub,2013-01-24 23:03:00,
2013-01-24 13:08:00,75.6,65.1,30.01,WNW,302,3.0,8.0,70,0.00,,,0.00,meteohub,2013-01-24 23:08:00,
2013-01-24 13:13:00,75.7,64.8,30.01,NNW,333,2.0,8.0,69,0.00,,,0.00,meteohub,2013-01-24 23:13:00,
2013-01-24 13:18:00,75.9,64.9,30.01,WSW,257,1.0,8.0,69,0.00,,,0.00,meteohub,2013-01-24 23:18:00,
2013-01-24 13:24:00,76.3,65.3,30.01,WSW,248,2.0,6.0,69,0.00,,,0.00,meteohub,2013-01-24 23:24:00,
2013-01-24 13:29:00,76.6,64.9,30.01,West,272,3.0,5.0,67,0.00,,,0.00,meteohub,2013-01-24 23:29:00,
2013-01-24 13:34:00,76.8,65.5,30.00,WNW,284,5.0,5.0,68,0.00,,,0.00,meteohub,2013-01-24 23:34:00,
2013-01-24 13:39:00,76.6,66.2,30.00,WNW,285,4.0,5.0,70,0.00,,,0.00,meteohub,2013-01-24 23:39:00,
2013-01-24 13:44:00,76.3,65.8,30.00,WNW,298,8.0,10.0,70,0.00,,,0.00,meteohub,2013-01-24 23:44:00,
2013-01-24 13:49:00,75.7,65.7,30.00,WNW,296,5.0,10.0,71,0.00,,,0.00,meteohub,2013-01-24 23:49:00,
2013-01-24 13:54:00,75.9,65.8,30.00,West,278,4.0,10.0,71,0.00,,,0.00,meteohub,2013-01-24 23:54:00,
2013-01-24 13:59:00,76.3,66.2,30.00,West,270,6.0,10.0,71,0.00,,,0.00,meteohub,2013-01-24 23:59:00,
2013-01-24 14:04:00,76.6,65.7,30.00,WNW,291,5.0,9.0,69,0.00,,,0.00,meteohub,2013-01-25 00:04:00,
2013-01-24 14:09:00,76.6,65.3,29.99,NW,308,4.0,9.0,68,0.00,,,0.00,meteohub,2013-01-25 00:09:00,
2013-01-24 14:14:00,76.6,65.3,29.99,West,270,7.0,9.0,68,0.00,,,0.00,meteohub,2013-01-25 00:14:00,
2013-01-24 14:19:00,76.6,64.9,29.99,WNW,296,4.0,9.0,67,0.00,,,0.00,meteohub,2013-01-25 00:19:00,
2013-01-24 14:24:00,77.2,65.3,29.99,West,276,6.0,11.0,67,0.00,,,0.00,meteohub,2013-01-25 00:24:00,
2013-01-24 14:29:00,77.2,66.2,29.99,NW,313,6.0,12.0,69,0.00,,,0.00,meteohub,2013-01-25 00:29:00,
2013-01-24 14:34:00,77.2,65.3,29.99,WNW,286,9.0,12.0,67,0.00,,,0.00,meteohub,2013-01-25 00:34:00,
2013-01-24 14:39:00,77.4,64.8,29.99,WNW,287,10.0,12.0,65,0.00,,,0.00,meteohub,2013-01-25 00:39:00,
2013-01-24 14:45:00,77.5,65.7,29.99,WNW,297,8.0,12.0,67,0.00,,,0.00,meteohub,2013-01-25 00:45:00,
2013-01-24 14:50:00,77.7,64.6,29.99,WNW,290,12.0,12.0,64,0.00,,,0.00,meteohub,2013-01-25 00:50:00,
2013-01-24 14:55:00,77.7,64.6,29.99,WNW,291,8.0,14.0,64,0.00,,,0.00,meteohub,2013-01-25 00:55:00,
2013-01-24 15:00:00,77.7,64.9,29.99,NW,314,8.0,14.0,65,0.00,,,0.00,meteohub,2013-01-25 01:00:00,
2013-01-24 15:05:00,78.3,66.7,29.99,West,276,4.0,14.0,68,0.00,,,0.00,meteohub,2013-01-25 01:05:00,
2013-01-24 15:10:00,78.3,66.4,29.99,WNW,288,5.0,13.0,67,0.00,,,0.00,meteohub,2013-01-25 01:10:00,
2013-01-24 15:15:00,78.4,66.6,29.99,NW,316,11.0,13.0,67,0.00,,,0.00,meteohub,2013-01-25 01:15:00,
2013-01-24 15:20:00,78.1,66.2,29.99,WNW,290,9.0,11.0,67,0.00,,,0.00,meteohub,2013-01-25 01:20:00,
2013-01-24 15:25:00,77.4,66.0,29.99,West,278,9.0,13.0,68,0.00,,,0.00,meteohub,2013-01-25 01:25:00,
2013-01-24 15:30:00,77.4,66.0,29.99,West,280,9.0,13.0,68,0.00,,,0.00,meteohub,2013-01-25 01:30:00,
2013-01-24 15:35:00,77.2,66.2,29.99,WNW,295,5.0,12.0,69,0.00,,,0.00,meteohub,2013-01-25 01:35:00,
2013-01-24 15:40:00,77.2,66.6,29.99,WNW,296,6.0,11.0,70,0.00,,,0.00,meteohub,2013-01-25 01:40:00,
2013-01-24 15:45:00,77.2,67.1,29.99,WNW,282,6.0,10.0,71,0.00,,,0.00,meteohub,2013-01-25 01:45:00,
2013-01-24 15:50:00,77.0,66.4,29.99,WSW,256,5.0,10.0,70,0.00,,,0.00,meteohub,2013-01-25 01:50:00,
2013-01-24 15:55:00,76.6,66.6,29.99,WSW,257,5.0,10.0,71,0.00,,,0.00,meteohub,2013-01-25 01:55:00,
2013-01-24 16:00:00,76.6,66.2,29.99,WSW,243,5.0,8.0,70,0.00,,,0.00,meteohub,2013-01-25 02:00:00,
2013-01-24 16:06:00,77.0,66.0,29.99,West,259,4.0,8.0,69,0.00,,,0.00,meteohub,2013-01-25 02:06:00,
2013-01-24 16:11:00,77.2,66.6,29.99,WNW,295,4.0,8.0,70,0.00,,,0.00,meteohub,2013-01-25 02:11:00,
2013-01-24 16:16:00,77.0,66.9,29.99,NW,309,5.0,8.0,71,0.00,,,0.00,meteohub,2013-01-25 02:16:00,
2013-01-24 16:21:00,76.6,66.9,29.99,WNW,285,5.0,8.0,72,0.00,,,0.00,meteohub,2013-01-25 02:21:00,
2013-01-24 16:26:00,76.8,66.7,29.99,West,273,4.0,8.0,71,0.00,,,0.00,meteohub,2013-01-25 02:26:00,
2013-01-24 16:31:00,76.6,66.9,29.99,West,260,5.0,8.0,72,0.00,,,0.00,meteohub,2013-01-25 02:31:00,
2013-01-24 16:36:00,76.6,65.7,30.00,WNW,283,3.0,8.0,69,0.00,,,0.00,meteohub,2013-01-25 02:36:00,
2013-01-24 16:41:00,76.6,66.2,30.00,WNW,300,6.0,9.0,70,0.00,,,0.00,meteohub,2013-01-25 02:41:00,
2013-01-24 16:46:00,76.8,65.8,30.00,WNW,300,4.0,9.0,69,0.00,,,0.00,meteohub,2013-01-25 02:46:00,
2013-01-24 16:51:00,76.5,65.5,30.01,NW,315,6.0,9.0,69,0.00,,,0.00,meteohub,2013-01-25 02:51:00,
2013-01-24 16:56:00,76.3,66.2,30.01,WNW,290,3.0,8.0,71,0.00,,,0.00,meteohub,2013-01-25 02:56:00,
2013-01-24 17:01:00,76.5,65.5,30.01,WNW,297,1.0,8.0,69,0.00,,,0.00,meteohub,2013-01-25 03:01:00,
2013-01-24 17:06:00,76.5,66.4,30.01,NW,306,4.0,8.0,71,0.00,,,0.00,meteohub,2013-01-25 03:06:00,
2013-01-24 17:11:00,76.3,66.2,30.01,NW,314,2.0,7.0,71,0.00,,,0.00,meteohub,2013-01-25 03:11:00,
2013-01-24 17:16:00,76.5,65.5,30.01,WNW,300,1.0,7.0,69,0.00,,,0.00,meteohub,2013-01-25 03:16:00,
2013-01-24 17:21:00,76.3,65.8,30.01,WNW,285,2.0,6.0,70,0.00,,,0.00,meteohub,2013-01-25 03:21:00,
2013-01-24 17:26:00,76.3,65.8,30.01,West,281,2.0,5.0,70,0.00,,,0.00,meteohub,2013-01-25 03:26:00,
2013-01-24 17:32:00,76.5,66.4,30.01,WNW,300,3.0,5.0,71,0.00,,,0.00,meteohub,2013-01-25 03:32:00,
2013-01-24 17:37:00,76.1,65.7,30.01,WNW,300,0.0,5.0,70,0.00,,,0.00,meteohub,2013-01-25 03:37:00,
2013-01-24 17:42:00,76.3,65.8,30.01,West,278,2.0,5.0,70,0.00,,,0.00,meteohub,2013-01-25 03:42:00,
2013-01-24 17:47:00,76.3,64.9,30.01,NW,311,1.0,5.0,68,0.00,,,0.00,meteohub,2013-01-25 03:47:00,
2013-01-24 17:52:00,76.3,64.9,30.02,NW,312,1.0,4.0,68,0.00,,,0.00,meteohub,2013-01-25 03:52:00,
2013-01-24 17:57:00,76.1,65.1,30.02,NW,316,1.0,4.0,69,0.00,,,0.00,meteohub,2013-01-25 03:57:00,
2013-01-24 18:02:00,75.7,64.8,30.02,NNE,30,0.0,3.0,69,0.00,,,0.00,meteohub,2013-01-25 04:02:00,
2013-01-24 18:07:00,75.7,64.8,30.02,NE,43,0.0,3.0,69,0.00,,,0.00,meteohub,2013-01-25 04:07:00,
2013-01-24 18:12:00,75.4,64.9,30.02,ENE,58,0.0,2.0,70,0.00,,,0.00,meteohub,2013-01-25 04:12:00,
2013-01-24 18:17:00,75.0,64.6,30.02,ENE,58,0.0,2.0,70,0.00,,,0.00,meteohub,2013-01-25 04:17:00,
2013-01-24 18:22:00,74.7,64.2,30.03,ENE,58,1.0,2.0,70,0.00,,,0.00,meteohub,2013-01-25 04:22:00,
2013-01-24 18:27:00,74.5,64.4,30.03,ENE,58,0.0,1.0,71,0.00,,,0.00,meteohub,2013-01-25 04:27:00,
2013-01-24 18:32:00,74.1,64.0,30.03,ENE,58,0.0,1.0,71,0.00,,,0.00,meteohub,2013-01-25 04:32:00,
2013-01-24 18:37:00,73.9,64.4,30.03,ENE,57,0.0,1.0,72,0.00,,,0.00,meteohub,2013-01-25 04:37:00,
2013-01-24 18:42:00,73.8,64.2,30.03,ENE,58,0.0,1.0,72,0.00,,,0.00,meteohub,2013-01-25 04:42:00,
2013-01-24 18:47:00,73.6,64.0,30.03,ENE,58,0.0,1.0,72,0.00,,,0.00,meteohub,2013-01-25 04:47:00,
2013-01-24 18:52:00,73.4,64.2,30.03,ENE,58,0.0,1.0,73,0.00,,,0.00,meteohub,2013-01-25 04:52:00,
2013-01-24 18:57:00,73.2,64.0,30.03,ENE,58,0.0,0.0,73,0.00,,,0.00,meteohub,2013-01-25 04:57:00,
2013-01-24 19:01:00,73.0,63.9,30.03,ENE,58,0.0,0.0,73,0.00,,,0.00,meteohub,2013-01-25 05:01:00,
2013-01-24 19:02:00,73.0,63.9,30.03,ENE,58,0.0,0.0,73,0.00,,,0.00,meteohub,2013-01-25 05:02:00,
2013-01-24 19:04:00,72.9,63.7,30.03,East,94,1.0,0.0,73,0.00,,,0.00,meteohub,2013-01-25 05:04:00,
2013-01-24 19:09:00,72.3,63.1,30.03,East,88,1.0,1.0,73,0.00,,,0.00,meteohub,2013-01-25 05:09:00,
2013-01-24 19:14:00,72.1,63.0,30.04,East,82,1.0,1.0,73,0.00,,,0.00,meteohub,2013-01-25 05:14:00,
2013-01-24 19:20:00,72.0,62.8,30.04,East,86,2.0,2.0,73,0.00,,,0.00,meteohub,2013-01-25 05:20:00,
2013-01-24 19:25:00,71.6,63.0,30.04,East,83,1.0,3.0,74,0.00,,,0.00,meteohub,2013-01-25 05:25:00,
2013-01-24 19:30:00,71.4,62.8,30.04,East,84,1.0,3.0,74,0.00,,,0.00,meteohub,2013-01-25 05:30:00,
2013-01-24 19:35:00,71.4,62.8,30.04,ENE,73,1.0,3.0,74,0.00,,,0.00,meteohub,2013-01-25 05:35:00,
2013-01-24 19:40:00,71.2,62.6,30.04,East,88,0.0,3.0,74,0.00,,,0.00,meteohub,2013-01-25 05:40:00,
2013-01-24 19:45:00,70.9,62.2,30.04,East,84,2.0,2.0,74,0.00,,,0.00,meteohub,2013-01-25 05:45:00,
2013-01-24 19:50:00,70.9,62.2,30.04,East,91,2.0,3.0,74,0.00,,,0.00,meteohub,2013-01-25 05:50:00,
2013-01-24 19:55:00,70.7,61.7,30.04,East,84,2.0,3.0,73,0.00,,,0.00,meteohub,2013-01-25 05:55:00,
2013-01-24 20:00:00,70.5,61.5,30.04,ENE,78,1.0,3.0,73,0.00,,,0.00,meteohub,2013-01-25 06:00:00,
2013-01-24 20:05:00,70.5,61.0,30.04,ENE,74,2.0,3.0,72,0.00,,,0.00,meteohub,2013-01-25 06:05:00,
2013-01-24 20:10:00,70.5,61.0,30.04,ESE,114,3.0,4.0,72,0.00,,,0.00,meteohub,2013-01-25 06:10:00,
2013-01-24 20:15:00,70.5,61.0,30.05,East,84,0.0,4.0,72,0.00,,,0.00,meteohub,2013-01-25 06:15:00,
2013-01-24 20:20:00,70.3,60.4,30.04,East,84,1.0,4.0,71,0.00,,,0.00,meteohub,2013-01-25 06:20:00,
2013-01-24 20:26:00,70.3,60.8,30.05,East,84,1.0,4.0,72,0.00,,,0.00,meteohub,2013-01-25 06:26:00,
2013-01-24 20:31:00,70.2,60.6,30.05,East,85,1.0,3.0,72,0.00,,,0.00,meteohub,2013-01-25 06:31:00,
2013-01-24 20:36:00,70.3,60.8,30.05,East,89,1.0,3.0,72,0.00,,,0.00,meteohub,2013-01-25 06:36:00,
2013-01-24 20:41:00,70.2,60.6,30.04,East,96,1.0,3.0,72,0.00,,,0.00,meteohub,2013-01-25 06:41:00,
2013-01-24 20:46:00,70.0,61.0,30.05,ESE,102,2.0,2.0,73,0.00,,,0.00,meteohub,2013-01-25 06:46:00,
2013-01-24 20:51:00,70.0,61.0,30.05,East,83,3.0,3.0,73,0.00,,,0.00,meteohub,2013-01-25 06:51:00,
2013-01-24 20:56:00,69.8,60.8,30.05,East,81,3.0,4.0,73,0.00,,,0.00,meteohub,2013-01-25 06:56:00,
2013-01-24 21:01:00,69.8,60.8,30.05,East,96,2.0,4.0,73,0.00,,,0.00,meteohub,2013-01-25 07:01:00,
2013-01-24 21:06:00,70.0,61.0,30.05,East,91,3.0,5.0,73,0.00,,,0.00,meteohub,2013-01-25 07:06:00,
2013-01-24 21:11:00,70.0,61.0,30.05,East,94,2.0,5.0,73,0.00,,,0.00,meteohub,2013-01-25 07:11:00,
2013-01-24 21:16:00,70.0,60.6,30.05,East,96,2.0,4.0,72,0.00,,,0.00,meteohub,2013-01-25 07:16:00,
2013-01-24 21:21:00,70.0,60.6,30.05,East,92,3.0,4.0,72,0.00,,,0.00,meteohub,2013-01-25 07:21:00,
2013-01-24 21:26:00,70.0,60.6,30.05,ESE,105,3.0,4.0,72,0.00,,,0.00,meteohub,2013-01-25 07:26:00,
2013-01-24 21:32:00,69.8,59.9,30.05,East,96,2.0,4.0,71,0.00,,,0.00,meteohub,2013-01-25 07:32:00,
2013-01-24 21:37:00,69.6,59.7,30.05,ENE,73,2.0,4.0,71,0.00,,,0.00,meteohub,2013-01-25 07:37:00,
2013-01-24 21:42:00,69.4,59.5,30.05,East,82,3.0,4.0,71,0.00,,,0.00,meteohub,2013-01-25 07:42:00,
2013-01-24 21:47:00,69.4,60.1,30.05,East,84,1.0,3.0,72,0.00,,,0.00,meteohub,2013-01-25 07:47:00,
2013-01-24 21:52:00,69.3,59.9,30.05,East,96,1.0,3.0,72,0.00,,,0.00,meteohub,2013-01-25 07:52:00,
2013-01-24 21:57:00,69.1,59.7,30.05,East,96,2.0,3.0,72,0.00,,,0.00,meteohub,2013-01-25 07:57:00,
2013-01-24 22:02:00,68.9,59.9,30.05,East,93,1.0,3.0,73,0.00,,,0.00,meteohub,2013-01-25 08:02:00,
2013-01-24 22:07:00,69.1,60.1,30.05,East,79,4.0,4.0,73,0.00,,,0.00,meteohub,2013-01-25 08:07:00,
2013-01-24 22:12:00,69.1,60.1,30.05,East,89,2.0,4.0,73,0.00,,,0.00,meteohub,2013-01-25 08:12:00,
2013-01-24 22:17:00,69.1,60.1,30.05,ENE,75,0.0,4.0,73,0.00,,,0.00,meteohub,2013-01-25 08:17:00,
2013-01-24 22:22:00,69.1,60.1,30.05,ENE,72,1.0,4.0,73,0.00,,,0.00,meteohub,2013-01-25 08:22:00,
2013-01-24 22:27:00,68.7,59.7,30.05,ENE,70,1.0,3.0,73,0.00,,,0.00,meteohub,2013-01-25 08:27:00,
2013-01-24 22:32:00,68.5,59.9,30.05,East,84,2.0,3.0,74,0.00,,,0.00,meteohub,2013-01-25 08:32:00,
2013-01-24 22:37:00,68.5,59.9,30.05,East,84,1.0,3.0,74,0.00,,,0.00,meteohub,2013-01-25 08:37:00,
2013-01-24 22:42:00,68.4,59.7,30.05,East,91,1.0,3.0,74,0.00,,,0.00,meteohub,2013-01-25 08:42:00,
2013-01-24 22:47:00,68.4,59.7,30.05,ENE,64,1.0,3.0,74,0.00,,,0.00,meteohub,2013-01-25 08:47:00,
2013-01-24 22:52:00,68.2,59.5,30.05,ENE,75,2.0,3.0,74,0.00,,,0.00,meteohub,2013-01-25 08:52:00,
2013-01-24 22:57:00,68.2,59.5,30.05,ENE,75,2.0,3.0,74,0.00,,,0.00,meteohub,2013-01-25 08:57:00,
2013-01-24 23:02:00,68.2,59.5,30.05,ENE,72,1.0,3.0,74,0.00,,,0.00,meteohub,2013-01-25 09:02:00,
2013-01-24 23:08:00,68.2,59.5,30.05,East,84,1.0,3.0,74,0.00,,,0.00,meteohub,2013-01-25 09:08:00,
2013-01-24 23:13:00,68.2,59.5,30.05,East,91,1.0,3.0,74,0.00,,,0.00,meteohub,2013-01-25 09:13:00,
2013-01-24 23:18:00,68.2,59.5,30.05,ENE,67,2.0,3.0,74,0.00,,,0.00,meteohub,2013-01-25 09:18:00,
2013-01-24 23:23:00,68.0,59.4,30.05,East,82,1.0,3.0,74,0.00,,,0.00,meteohub,2013-01-25 09:23:00,
2013-01-24 23:28:00,68.0,59.0,30.05,ENE,72,2.0,2.0,73,0.00,,,0.00,meteohub,2013-01-25 09:28:00,
2013-01-24 23:33:00,67.8,58.5,30.05,East,82,1.0,3.0,72,0.00,,,0.00,meteohub,2013-01-25 09:33:00,
2013-01-24 23:38:00,67.8,58.5,30.04,East,84,2.0,3.0,72,0.00,,,0.00,meteohub,2013-01-25 09:38:00,
2013-01-24 23:43:00,67.6,58.3,30.04,East,84,2.0,3.0,72,0.00,,,0.00,meteohub,2013-01-25 09:43:00,
2013-01-24 23:48:00,67.6,58.3,30.04,ENE,68,2.0,3.0,72,0.00,,,0.00,meteohub,2013-01-25 09:48:00,
2013-01-24 23:54:00,67.6,58.3,30.04,ENE,72,2.0,2.0,72,0.00,,,0.00,meteohub,2013-01-25 09:54:00,
2013-01-24 23:59:00,67.6,58.3,30.04,ENE,73,3.0,3.0,72,0.00,,,0.00,meteohub,2013-01-25 09:59:00,